Home   Weather   28°01'N, 81°43'W   Past weeks
Flag for USA

Past Weather in 28°01'N, 81°43'W, USA — Yesterday and Last 2 Weeks

Now
75 °F

Passing clouds.


Feels Like: 75 °F
Forecast: 82 / 74 °F
Wind: 8 mph from East

Location: Lakeland Regional

Current Time: Oct 18, 2019 at 8:28:31 pm

Latest Report: Oct 18, 2019 at 7:58 pm


Visibility: 10 mi

Pressure: 29.88 "Hg

Humidity: 89%

Dew Point: 72 °F

Location of 28°01'N, 81°43'WLocation

Past Weather in 28°01'N, 81°43'W — Graph

°F

28°01'N, 81°43'W Temperature Yesterday

Maximum temperature yesterday: 84 °F (at 1:50 pm)
Minimum temperature yesterday: 72 °F (at 5:55 am)
Average temperature yesterday: 77 °F

High & Low Weather Summary for the Past Weeks

 TemperatureHumidityPressure
High91 °F (Oct 4, 4:50 pm)100% (Oct 4, 5:50 am)30.09 "Hg (Oct 4, 5:50 am)
Low66 °F (Oct 12, 6:50 am)40% (Oct 14, 2:50 pm)29.82 "Hg (Oct 7, 3:50 pm)
Average79 °F74%29.98 "Hg
* Reported Oct 3 6:50 pm — Oct 18 6:50 pm, 28°01'N, 81°43'W. Weather by CustomWeather, © 2019

Note: Actual official high and low records may vary slightly from our data, if they occured in-between our weather recording intervals... More about our weather records

Advertising

28°01'N, 81°43'W Weather History for the Previous 24 Hours

Scroll right to see more
 ConditionsComfort  
Time TempWeatherWind HumidityBarometerVisibility
6:50 pm
Fri, Oct 18
75 °FScattered clouds.7 mph83%29.88 "Hg10 mi
5:50 pm77 °FScattered clouds.7 mph79%29.87 "Hg10 mi
4:50 pm77 °FScattered showers. Scattered clouds.No wind74%29.89 "Hg10 mi
3:50 pm77 °FScattered showers. Scattered clouds.9 mph69%29.87 "Hg10 mi
2:50 pm77 °FBroken clouds.5 mph69%29.92 "Hg10 mi
1:50 pm75 °FScattered clouds.5 mph69%29.93 "Hg10 mi
12:50 pm75 °FPartly sunny.7 mph69%29.95 "Hg10 mi
11:50 am75 °FPartly sunny.7 mph65%29.96 "Hg10 mi
10:50 am73 °FPartly sunny.9 mph65%29.97 "Hg10 mi
9:50 am72 °FPartly sunny.8 mph65%29.96 "Hg10 mi
8:50 am70 °FPartly sunny.6 mph73%29.96 "Hg10 mi
7:50 am70 °FSunny.5 mph78%29.94 "Hg10 mi
6:50 am70 °FPassing clouds.No wind78%29.93 "Hg10 mi
5:50 am70 °FPassing clouds.No wind78%29.90 "Hg10 mi
9:50 pm
Thu, Oct 17
73 °FClear.5 mph83%29.93 "Hg10 mi
8:50 pm75 °FClear.5 mph78%29.92 "Hg10 mi
Weather by CustomWeather, © 2019

See weather overview